IRIDIUM 33 DEB, 38028

Orbit data source: Space-Track

IRIDIUM 33 DEB, 38028 is space debris in LEO originally from a launch on Sun, 14 Sep 1997 UTC launched from the Tyuratam Missile And Space Complex (TTMTR). The debris from Iridium 33, an American commercial communications satellite, has been tracked extensively since its accidental collision with the defunct Russian satellite Cosmos 2251 in 2009. This event, occurring at high speed in low Earth orbit (LEO), generated thousands of pieces of space debris, significantly increasing the risk of further collisions. The Iridium 33 debris cloud has impacted space traffic management and orbital debris mitigation strategies, making it a subject of ongoing study in space situational awareness.

Loading next visibility...
Identifier
38028, 1997-051YQ
Orbit
LEO
Country
Flag of USUS
Related business
Manufacturer
Unknown
Mission
Spacecraft
Bus & Motor
Unknown
Mass
Unknown
Launch date (UTC)
1997-09-14 (28 years ago)
Launch vehicle
Unknown
Launch site
Tyuratam Missile And Space Complex (TTMTR)
Object type
Payload
Rocket body
Debris
Shape & HBR
Unknown shape, 0.1 m
Radar Cross Section
Small (<0.1 m²)

Expand to show TLE details & history
Last TLE update: 1 day ago

TLE from 1 day ago
0 IRIDIUM 33 DEB
1 38028U 97051YQ  25350.76390883  .00000770  00000-0  20848-3 0  9991
2 38028  86.3259 358.5216 0030261 108.2751 252.1749 14.46184882655532
Epoch: 2025-12-16T18:20Z
TLE epoch observation values (Epoch: 2025-12-16T18:20:01.722Z)
Latitude
0.00003°
Longitude
-2.12902°
Altitude
747.856 km
Speed
7.477 km/s
True Right ascension
23h 54m 05s
True Declination
0° 00' 00"
Sunlit
Object was in daylight at epoch
Visualization orbit readout
Latitude
Unknown
Longitude
Unknown
Altitude
Unknown
Speed
Unknown
Apparent Right ascension
Unknown
Apparent Declination
Unknown
Sunlit
N/A
Visualization observer readout
Local Sidereal Time
02:45:21
Azimuth
Unknown
Elevation
Unknown
Doppler factor
Unknown
Orbital elements
Apogee altitude
756.611 km
Perigee altitude
713.56 km
Semi-major axis
7,113.222 km
Eccentricity
0.00303
Inclination
86.3259°
RAAN
358.5216°
Arg. of periapsis
108.2751°
True anomaly
251.84516°
Mean anomaly
252.1749°
Eccentric anomaly
252.00999°
Mean motion
3.61779 °/min
Orbital period
99.51 mins
BSTAR
0.00020848
Loading maneuver chart data...
Computing Atmospheric mass density...

Documentation

Showing up to 5 results
|